TimeEDT,TemperatureF,Dew PointF,Humidity,Sea Level PressureIn,VisibilityMPH,Wind Direction,Wind SpeedMPH,Gust SpeedMPH,PrecipitationIn,Events,Conditions,WindDirDegrees,DateUTC
12:53 AM,71.1,71.1,100,29.75,10.0,West,3.5,-,N/A,,Clear,270,2013-05-04 04:53:00
1:53 AM,70.0,70.0,100,29.73,10.0,WNW,5.8,-,N/A,,Clear,290,2013-05-04 05:53:00
2:53 AM,70.0,70.0,100,29.70,10.0,West,4.6,-,N/A,,Clear,270,2013-05-04 06:53:00
3:53 AM,70.0,70.0,100,29.71,10.0,West,6.9,-,N/A,,Clear,280,2013-05-04 07:53:00
4:53 AM,70.0,70.0,100,29.71,10.0,WNW,6.9,-,N/A,,Clear,290,2013-05-04 08:53:00
5:53 AM,69.1,69.1,100,29.72,10.0,WNW,4.6,-,N/A,,Clear,290,2013-05-04 09:53:00
6:53 AM,68.0,68.0,100,29.75,9.0,West,5.8,-,N/A,,Clear,280,2013-05-04 10:53:00
7:53 AM,70.0,70.0,100,29.76,10.0,West,4.6,-,N/A,,Clear,280,2013-05-04 11:53:00
8:53 AM,73.0,70.0,90,29.76,10.0,West,10.4,-,N/A,,Clear,280,2013-05-04 12:53:00
9:53 AM,77.0,68.0,74,29.77,10.0,West,12.7,-,0.01,,Scattered Clouds,280,2013-05-04 13:53:00
10:53 AM,79.0,66.9,66,29.78,10.0,WNW,11.5,-,N/A,,Scattered Clouds,300,2013-05-04 14:53:00
11:53 AM,82.0,66.9,60,29.78,10.0,WNW,12.7,18.4,N/A,,Scattered Clouds,300,2013-05-04 15:53:00
12:53 PM,82.9,66.0,56,29.76,10.0,WNW,12.7,-,N/A,,Mostly Cloudy,290,2013-05-04 16:53:00
1:53 PM,82.9,66.0,56,29.75,10.0,NNW,10.4,-,N/A,,Scattered Clouds,330,2013-05-04 17:53:00
2:53 PM,84.9,64.9,51,29.72,10.0,WNW,10.4,-,N/A,,Mostly Cloudy,300,2013-05-04 18:53:00
3:53 PM,86.0,63.0,46,29.70,10.0,West,11.5,18.4,N/A,,Scattered Clouds,270,2013-05-04 19:53:00
4:53 PM,86.0,64.0,48,29.71,10.0,WNW,12.7,-,N/A,,Scattered Clouds,300,2013-05-04 20:53:00
5:53 PM,84.9,64.0,49,29.72,10.0,WNW,13.8,21.9,N/A,,Mostly Cloudy,300,2013-05-04 21:53:00
6:53 PM,84.0,64.0,51,29.73,10.0,NW,13.8,21.9,N/A,,Scattered Clouds,310,2013-05-04 22:53:00
7:53 PM,81.0,63.0,54,29.75,10.0,WNW,10.4,-,N/A,,Clear,300,2013-05-04 23:53:00
8:53 PM,78.1,64.0,62,29.77,10.0,West,5.8,-,N/A,,Clear,280,2013-05-05 00:53:00
9:53 PM,75.9,64.0,67,29.79,10.0,West,13.8,-,N/A,,Clear,270,2013-05-05 01:53:00
10:53 PM,73.9,64.9,73,29.81,10.0,West,10.4,-,N/A,,Clear,270,2013-05-05 02:53:00
11:53 PM,73.0,64.9,76,29.82,10.0,West,12.7,-,N/A,,Clear,270,2013-05-05 03:53:00